{"data":{"norad_id":62436,"epoch":"2026-05-24T19:28:03.933696Z","epoch_age_seconds":101925,"freshness":"FRESH","line1":"1 62436U 24251E   26144.81115664  .00016153  00000+0  55631-3 0  9992","line2":"2 62436  53.1610 341.6793 0000703  81.0660 279.0420 15.30199399 79608","mean_motion":15.30199399,"eccentricity":7.03e-5,"inclination_deg":53.161,"raan_deg":341.6793,"arg_perigee_deg":81.066,"mean_anomaly_deg":279.042,"bstar":0.00055631,"rev_number":7960,"period_min":94.105382667191,"perigee_km":474.73507312095,"apogee_km":475.69865467421,"semimajor_km":6853.3538638976,"source":"CELESTRAK","updated_at":"2026-05-25T13:38:19.657612Z"}}